Other Surface Observations
Issued by NWS Jacksonville, FL

Home | Current Version | Previous Version | Text Only | Print | Product List | Glossary On
Versions: 1 2 3 4 5 6 7 8 9 10 11 12 13 14 15 16 17 18 19 20 21 22 23 24 25 26 27 28 29 30 31 32 33 34 35 36 37 38 39 40 41 42 43 44 45 46 47 48 49 50
000
SXUS52 KJAX 070513
OSOJAX
OTHER SURFACE OBSERVATIONS
NATIONAL WEATHER SERVICE JACKSONVILLE FL
1200 AM EST SUN FEB 07 2016

FLZ020>025-030>033-035>038-040-070600-
...FLORIDA...

CITY           SKY/WX    TMP DP  RH WIND       PRES   REMARKS
CECIL FIELD    LGT RAIN  41  41 100 NW10      30.07F FOG     WCI  35
HERLONG FIELD  NOT AVBL
FERNANDINA BCH NOT AVBL
LAKE CITY      DRIZZLE   41  41 100 NW9       30.11F WCI  35
JUNIPER SPGS   NOT AVBL
BUNNELL        NOT AVBL
KEYSTONE HGTS  CLOUDY    43  43 100 N10       30.07F WCI  37
$$

GAZ132>136-149>154-162>166-070600-
...GEORGIA...

CITY           SKY/WX    TMP DP  RH WIND       PRES   REMARKS
JESUP          LGT RAIN  43  43 100 NE7       30.10F WCI  39
HOMERVILLE     DRIZZLE   43  43 100 N3        30.12F
SWAINSBORO     CLOUDY    41  36  81 NE5       30.15S WCI  38
CORDELE        NOT AVBL
EASTMAN        FAIR      40  36  84 CALM      30.18F
$$

PLEASE NOTE:  THESE OBSERVATIONS ARE NOT QUALITY CONTROLLED AND MAY
NOT BE AVAILABLE AT ALL TIMES.
$$



USA.gov is the U.S. government's official web portal to all federal, state and local government web resources and services.